Regional Weather Roundup
Issued by NWS Grand Forks, ND

Home | Current Version | Previous Version | Graphics & Text | Print | Product List | Glossary On
Versions: 1 2 3 4 5 6 7 8 9 10 11 12 13 14 15 16 17 18 19 20 21 22 23 24 25 26 27 28 29 30 31 32 33 34 35 36 37 38 39 40 41 42 43 44 45 46 47 48 49 50
000
ASUS43 KFGF 231010
RWRFGF
PRAIRIE TO PINES  WEATHER ROUNDUP
NATIONAL WEATHER SERVICE EASTERN NORTH DAKOTA/GRAND FORKS ND
500 AM CDT FRI JUN 23 2017

 **SATELLITE DATA USED TO AUGMENT SKY COVER AT AUTOMATED STATIONS**
 *****  WEATHER ACROSS EASTERN NORTH DAKOTA  *****

CITY           SKY/WX    TMP DP  RH WIND       PRES   REMARKS
GRAND FORKS    FAIR      59  54  83 NW16G23   29.73R
GRAND FRKS AFB FAIR      59  53  81 NW14      29.74R
DEVILS LAKE    CLOUDY    57  50  77 NW25G32   29.81R
FARGO          FAIR      58  52  80 W12       29.75R
WAHPETON ARPT  FAIR      52  45  76 W8        29.78S
$$

 ***** WEATHER ACROSS CENTRAL AND WESTERN NORTH DAKOTA  *****

CITY           SKY/WX    TMP DP  RH WIND       PRES   REMARKS
BISMARCK       CLOUDY    57  47  69 NW14G25   29.97R
MINOT          CLOUDY    54  45  71 NW22G30   29.94R
JAMESTOWN      CLOUDY    58  50  75 NW22G32   29.83R
MINOT AFB      CLOUDY    54  45  71 NW21      29.94R
GARRISON         N/A     50  44  80 NW22G30   29.96R
WILLISTON      FAIR      47  42  83 W12       30.08R
DICKINSON      CLOUDY    50  44  80 NW22      30.05S
HETTINGER      CLOUDY    52  44  74 NW21      30.10R
$$

 *****  OTHER AIRPORT OBSERVATIONS IN OUR AREA  *****

CITY           SKY/WX    TMP DP  RH WIND       PRES   REMARKS
WALHALLA       NOT AVBL
GRAFTON AIRPOR FAIR      57  54  88 NW13      29.75R
VALLEY CITY AR CLOUDY    57  55  94 NW20G28   29.81R
CANDO          NOT AVBL
CAVALIER APRT  FAIR      57  52  82 NW15      29.73R
GWINNER        CLOUDY    61  54  77 NW16G26   29.82R
SHEYENNE NWR     N/A     56  53  90 NW7       29.95S
ROLLA            N/A     54  48  82 NW21G36   29.85R
 ***** THE ABOVE OBSERVATIONS ARE NON NWS ARE NOT QUALITY
       CONTROLLED AND MAY MIS-REPORT RAIN FOR SNOW...
$$

  *****  WEATHER ACROSS NORTHERN MINNESOTA  *****

CITY           SKY/WX    TMP DP  RH WIND       PRES   REMARKS
FLAG ISLAND    MOCLDY    55  52  88 NW18G24   29.60R
WARROAD        FAIR      52  46  82 W7        29.65R
ROSEAU           N/A     54  48  82 W9        29.66R
HALLOCK        FAIR      55  54  94 NW13      29.70R
THF RVR FALLS  FAIR      55  51  86 NW16      29.71R
BAUDETTE       FAIR      53  50  89 W13       29.62R
WASKISH        FAIR      55  52  88 W16G24    29.64S
CROOKSTON      FAIR      57  52  82 NW15      29.72R
STEPHEN NDAWN    N/A     55  52  88 NW9         N/A
GREENBUSH NDAW   N/A     54  52  94 W9          N/A
$$
  *****  WEATHER ACROSS CENTRAL AND WEST MINNESOTA  *****

CITY           SKY/WX    TMP DP  RH WIND       PRES   REMARKS
FOSSTON        MOCLDY    54  48  82 W9        29.71S
BEMIDJI        CLOUDY    54  47  77 W9        29.69R
PARK RAPIDS    FAIR      52  45  77 W8        29.72R
ELBOW LAKE     PTSUNNY   55  46  71 NW9       29.78S
WADENA         FAIR      54  46  76 W8        29.74R
DETROIT LAKES  FAIR      55  46  71 W12       29.75S
MOORHEAD       FAIR      57  50  77 W9        29.76R
FERGUS FALLS   MOCLDY    55  46  71 W7        29.75S
MORRIS MN      FAIR      55  48  76 W9        29.78S
STAPLES        FAIR      50  45  81 W5        29.73S
$$
  *****  WEATHER ELSEWHERE ACROSS MINNESOTA  *****

CITY           SKY/WX    TMP DP  RH WIND       PRES   REMARKS
DULUTH         FAIR      52  47  83 W10       29.64S
INTRNTL FALLS  FAIR      53  46  77 W9        29.59R
ELY            FAIR      50  43  76 W5        29.61S
CLOQUET        FAIR      55  45  67 W8        29.66S
WHEATON        FAIR      57  46  67 W9        29.81S
BRAINERD       FAIR      57  45  64 NW10      29.72R
HIBBING        FAIR      48  43  82 W5        29.64S
ALEXANDRIA     FAIR      56  46  69 W13       29.77S
SAINT CLOUD    FAIR      57  49  74 NW9       29.72S
MINNEAPOLIS    FAIR      59  54  83 W5        29.71F
$$

  *****  WEATHER ACROSS SOUTH DAKOTA  *****

CITY           SKY/WX    TMP DP  RH WIND       PRES   REMARKS
SIOUX FALLS    FAIR      56  47  71 NW10      29.88R
BROOKINGS      FAIR      53  46  77 W8        29.87R
WATERTOWN      FAIR      57  48  72 NW16      29.85S
HURON          FAIR      55  47  74 NW15      29.91S
SISSETON         N/A     59  49  69 W14       29.80S
ABERDEEN       FAIR      56  47  71 W10       29.88S
MITCHELL       FAIR      57  44  62 NW13      29.93R
PIERRE         FAIR      56  47  71 W17       30.01R
MOBRIDGE       CLOUDY    59  48  67 NW25G33   29.96R
RAPID CITY     FAIR      54  38  54 NW12      30.15R
$$

  *****  SOME WEATHER IN NEARBY STATES *****

CITY           SKY/WX    TMP DP  RH WIND       PRES   REMARKS
GLASGOW MT     FAIR      41  38  89 N5        30.18S
GREAT FALLS MT MOCLDY    39  35  86 SW3       30.29S
CHEYENNE WY    CLOUDY    51  38  60 NE14G24   30.27R
SCOTTSBLUFF NE CLOUDY    57  40  52 N17G30    30.24R
OMAHA NE       MOCLDY    65  55  70 N10       29.81R
DES MOINES IA  FAIR      66  63  90 N9        29.79R
DAVENPORT IA   MOCLDY    69  66  90 N14       29.70R
CHICAGO IL     TSTM      68  65  90 N16G32    29.66R FOG
EAU CLAIRE WI  FAIR      58  57  97 CALM      29.69S
LA CROSSE WI   FAIR      62  61  96 CALM      29.72R FOG
$$

  *****  SOME NATIONAL WEATHER *****

CITY           SKY/WX    TMP DP  RH WIND       PRES   REMARKS
LA GUARDIA NY  MOCLDY    79  72  79 S9        29.82S
RALEIGH NC     CLOUDY    74  73  97 SW7       30.00R
ATLANTA GA     MOCLDY    73  71  93 S7        30.02S
NEW ORLEANS LA MOCLDY    80  77  90 S10G22    29.88R
OKLAHOMA CITY  MOCLDY    70  69  97 S7        29.71F
ALBUQUERQUE NM FAIR      77  43  29 SE13      29.99R
SALT LAKE CITY FAIR      64  37  36 N5        30.09R
LOS ANGELES CA CLOUDY    64  61  90 W6        29.87F
BOISE ID       FAIR      55  36  48 CALM      30.14R
SEATTLE WA     FAIR      60  47  61 NE7       30.24R
$$

*** WEATHER ACROSS MANITOBA...SASKATCHEWAN AND ONTARIO ***
                ***ONTARIO***

CITY           SKY/WX    TMP DP  RH WIND       PRES   REMARKS
GERALDTON      PTCLDY    48  48 100 W2        29.52R
THUNDER BAY    MOCLDY    52  50  93 SW3       29.54S
SIOUX LOOKOUT  CLOUDY    52  48  87 W3        29.53R
TORONTO        MOCLDY    68  68 100 SE7       29.66F
BIG TROUT LK   CLOUDY    52  52 100 NE6       29.55R
PICKLE LAKE    NOT AVBL
DRYDEN         CLOUDY    52  50  93 W6        29.54R
KENORA         LGT RAIN  52  52 100 NW10      29.58R
$$
                *** MANITOBA***

CITY           SKY/WX    TMP DP  RH WIND       PRES   REMARKS
BRANDON        MOCLDY    54  46  76 NW17G28   29.82R
DAUPHIN        CLOUDY    54  48  82 NW9       29.81R
ISLAND LAKE    MOCLDY    57  54  88 N3        29.57R
PILOT MOUND      N/A     52  50  93 NW20G26     N/A
THE PAS        DRIZZLE   46  45  93 NW17G25   29.81R FOG
THOMPSON       CLOUDY    45  41  87 NE10G20   29.76R
WINNIPEG       LGT RAIN  57  55  94 N15       29.68R
LYNN LAKE      LGT RAIN  45  41  87 NE10G22   29.89R
CHURCHILL      MOCLDY    39  36  87 N20       29.87
GILLAM         CLOUDY    41  37  87 NE21G28   29.75R
$$
                ***SASKATCHEWAN***

CITY           SKY/WX    TMP DP  RH WIND       PRES   REMARKS
ESTEVAN        PTCLDY    45  39  81 NW15      30.00S
KINDERSLEY     PTCLDY    39  36  87 NW7       30.18R
LLOYDMINSTER   CLEAR     39  39 100 W9        30.16S
PRINCE ALBERT  MOCLDY    43  37  81 NW8       30.02S
REGINA         PTCLDY    45  39  81 NW14G21   30.06R
YORKTON        CLEAR     46  41  81 NW17      29.92S
N. BATTLEFORD  CLEAR     39  36  87 NW6       30.15S
LA RONGE       LGT RAIN  43  41  93 NW8       30.01R
SASKATOON      CLEAR     39  37  93 W10       30.11R
SWIFT CURRENT  MOCLDY    41  37  87 W8        30.15R
$$
NOTE: THESE ARE AUTOMATED STATIONS WITH LIMITED QUALITY CONTROL
      "FAIR" INDICATES FEW OR NO CLOUDS BELOW 12,000 FEET WITH NO
      SIGNIFICANT WEATHER AND/OR OBSTRUCTIONS TO VISIBILITY.
      SKY/WX - SKY CONDITION AND SIGNIFICANT WEATHER.
      TMP - AIR TEMPERATURE.    DP   - DEWPOINT TEMPERATURE.
      RH  - RELATIVE HUMIDITY.  PRES - PRESSURE.
      HX  - HEAT INDEX.         WCI  - WIND CHILL INDEX.
$




USA.gov is the U.S. government's official web portal to all federal, state and local government web resources and services.